[Iaude] MPEC N70: 2024 NH1 [a=1.24,e=0.06,i=18.1,H=23.0]
    mpec at cfa.harvard.edu 
    mpec at cfa.harvard.edu
       
    Sat Jul  6 00:28:27 EDT 2024
    
    
  
M.P.E.C. 2024-N70                                  Issued 2024 July 6, 04:26 UT
     The Minor Planet Electronic Circulars contain information on unusual
         minor planets, routine data on comets and natural satellites,
         and occasional editorial announcements.  They are published
    on behalf of Division F of the International Astronomical Union by the
          Minor Planet Center, Smithsonian Astrophysical Observatory,
                          Cambridge, MA 02138, U.S.A.
			  
             Prepared using the Tamkin Foundation Computer Network
                              MPC at CFA.HARVARD.EDU
            URL https://www.minorplanetcenter.net/    ISSN 1523-6714
                                    2024 NH1                                    
Observations:
     K24N01H  C2024 06 27.46200417 56 32.008+30 36 29.44         22.07GVEN070F51
     K24N01H  C2024 06 27.47346017 56 30.955+30 36 52.25         21.38GVEN070F51
     K24N01H  C2024 06 27.48490317 56 29.850+30 37 14.88         21.88GVEN070F51
     K24N01H* C2024 07 02.46068617 50 27.520+32 58 06.25         22.66wXEN070F51
     K24N01H  C2024 07 02.47220317 50 26.601+32 58 22.00         21.96wXEN070F51
     K24N01H  C2024 07 02.48365017 50 25.694+32 58 37.42         22.45wXEN070F51
     K24N01H KC2024 07 05.43623 17 47 20.34 +34 00 09.2                VEN070291
     K24N01H KC2024 07 05.44204 17 47 19.96 +34 00 14.7          21.5 RVEN070291
     K24N01H KC2024 07 05.44780 17 47 19.63 +34 00 20.9          21.7 RVEN070291
     K24N01H KC2024 07 06.15129117 46 41.89 +34 12 58.9          22.1 GVEN070H21
     K24N01H KC2024 07 06.15997217 46 41.30 +34 13 08.4          22.3 GVEN070H21
     K24N01H KC2024 07 06.16324717 46 41.08 +34 13 11.9          22.7 GVEN070H21
Observer details:
291 LPL/Spacewatch II.  Observer C. Lejoly.  1.8-m f/2.7 reflector + CCD.
F51 Pan-STARRS 1, Haleakala.  Observers J. Herman, T. Lowe, P. Minguez, A.
    Schultz, I. Smith.  Measurers K. Chambers, T. de Boer, J. Fairlamb, H.
    Gao, M. Huber, C.-C. Lin, E. Magnier, Y. Ramanjooloo, R. Wainscoat, R.
    Weryk.  1.8-m Ritchey-Chretien + CCD.
H21 Astronomical Research Observatory, Westfield.  Observer R. Holmes.
    Measurers T. Linder, R. Holmes, L. Horn.  1.3-m f/4.0 astrograph + CCD.
Orbital elements:
2024 NH1                                                 Earth MOID = 0.1523 AU
Epoch 2024 Mar. 31.0 TT = JDT 2460400.5                 MPC                     
M 328.48614              (2000.0)            P               Q                  
n   0.71323068     Peri.  357.72001     -0.48482829     +0.82970484             
a   1.2406503      Node   243.16411     -0.79745244     -0.54925991             
e   0.0608690      Incl.   18.06120     -0.35918121     +0.09951600             
P   1.38           H   23.04          G   0.15           U   8                  
Residuals in seconds of arc
240627 F51  0.0   0.2-    240702 F51  0.0   0.0     240705 291  0.3+  0.0
240627 F51  0.2+  0.0     240702 F51  0.2+  0.1-    240706 H21  0.0   0.1-
240627 F51  0.2-  0.2+    240705 291  0.1-  0.1+    240706 H21  0.0   0.2+
240702 F51  0.1-  0.0     240705 291  0.2-  0.4-    240706 H21  0.1+  0.2+
Ephemeris:
2024 NH1                 a,e,i = 1.24, 0.06, 18                  q = 1.1651
Date    TT    R. A. (2000) Decl.     Delta      r    Elong.  Phase     V
2024 06 06    18 28 07.5 +08 49 49   0.1891  1.1685   141.4    32.8    21.1
...
2024 06 21    18 05 36.8 +26 12 05   0.2249  1.1743   130.3    41.3    21.8
...
2024 06 29    17 54 34.6 +31 25 17   0.2525  1.1785   124.6    45.2    22.1
...
2024 07 05    17 47 48.0 +33 52 03   0.2749  1.1820   121.0    47.5    22.4
2024 07 06    17 46 49.9 +34 10 23   0.2788  1.1827   120.4    47.8    22.4
2024 07 07    17 45 54.9 +34 27 09   0.2826  1.1833   119.9    48.1    22.5
...
2024 07 13    17 41 31.2 +35 38 21   0.3057  1.1873   117.1    49.7    22.7
...
2024 07 21    17 38 44.2 +36 10 12   0.3364  1.1931   114.0    51.1    22.9
...
2024 08 05    17 42 29.8 +34 58 28   0.3912  1.2053   109.9    52.3    23.3
A. U. Tomatic                (C) Copyright 2024 MPC           M.P.E.C. 2024-N70
    
    
More information about the Iaude
mailing list